This is the latest recevied weather packets stored in our database for station/object DK4DAX-2. If no packets are shown the sender has not sent any weather packets the latest 10 day(s).
| Time | Temp. | Humidity | Pressure | Rain* | Wind** | Luminosity | Snow |
|---|---|---|---|---|---|---|---|
| 1777417203 | 13.33° C | 33% | 1015.6 hPa | 0 mm | - | - | - |
| 1777416302 | 13.33° C | 33% | 1015.4 hPa | 0 mm | - | - | - |
| 1777415403 | 13.89° C | 33% | 1015.6 hPa | 0 mm | - | - | - |
| 1777414503 | 13.89° C | 31% | 1015.4 hPa | 0 mm | - | - | - |
| 1777413603 | 14.44° C | 31% | 1015.3 hPa | 0 mm | - | - | - |
| 1777412702 | 15° C | 32% | 1015.1 hPa | 0 mm | - | - | - |
| 1777411803 | 15° C | 31% | 1014.9 hPa | 0 mm | - | - | - |
| 1777410903 | 15.56° C | 32% | 1014.8 hPa | 0 mm | - | - | - |
| 1777410002 | 15.56° C | 31% | 1014.4 hPa | 0 mm | - | - | - |
| 1777409103 | 16.11° C | 30% | 1014.3 hPa | 0 mm | - | - | - |
| 1777408203 | 16.11° C | 30% | 1014.1 hPa | 0 mm | - | - | - |
| 1777407302 | 16.67° C | 30% | 1014 hPa | 0 mm | - | - | - |
| 1777406403 | 16.67° C | 30% | 1013.9 hPa | 0 mm | - | - | - |
| 1777405503 | 17.22° C | 28% | 1013.7 hPa | 0 mm | - | - | - |
| 1777404602 | 17.78° C | 27% | 1013.4 hPa | 0 mm | - | - | - |
| 1777403703 | 18.33° C | 25% | 1013.3 hPa | 0 mm | - | - | - |
| 1777402803 | 18.89° C | 23% | 1013 hPa | 0 mm | - | - | - |
| 1777401902 | 19.44° C | 17% | 1012.8 hPa | 0 mm | - | - | - |
| 1777401003 | 19.44° C | 17% | 1012.5 hPa | 0 mm | - | - | - |
| 1777400103 | 20° C | 17% | 1012.3 hPa | 0 mm | - | - | - |
| 1777399203 | 20.56° C | 16% | 1012.1 hPa | 0 mm | - | - | - |
| 1777398303 | 20.56° C | 16% | 1012.1 hPa | 0 mm | - | - | - |
| 1777397403 | 21.11° C | 14% | 1011.6 hPa | 0 mm | - | - | - |
| 1777396502 | 21.67° C | 14% | 1011.8 hPa | 0 mm | - | - | - |
| 1777395603 | 21.67° C | 14% | 1011.6 hPa | 0 mm | - | - | - |
* Rain latest hour (hover to see other rain measurements)
** Current wind speed in m/s (hover to see current wind gust speed)